�N����,����,�~����,�C��,���x,�C��,����,���ϕ���,�ő�u�ԕ���,�ő厞����,���˗�,�I�_���x,�n�����x,�ő啗���N��,DTYPE
"19/05/12","00:10",0.0,16.1,44.3,1008.3,336.9,2.6,4.8,344.7,0.00,4.0,17.6,"00:08:56",1
"19/05/12","00:20",0.0,16.1,44.1,1008.6,332.4,2.3,4.5,342.4,0.00,3.9,17.4,"00:10:48",1
"19/05/12","00:30",0.0,16.2,43.4,1008.6,335.8,2.8,4.5,330.8,0.00,3.8,17.6,"00:24:48",1
"19/05/12","00:40",0.0,16.0,44.2,1008.3,331.0,2.3,4.3,332.3,0.00,3.9,17.5,"00:39:12",1
"19/05/12","00:50",0.0,15.7,44.8,1008.6,328.8,2.2,4.1,330.2,0.00,3.8,17.3,"00:43:44",1
"19/05/12","01:00",0.0,15.9,44.8,1008.3,334.3,3.0,5.8,346.2,0.00,4.0,17.2,"00:57:52",1
"19/05/12","01:10",0.0,15.8,45.5,1008.6,334.4,3.5,5.1,335.3,0.00,4.1,17.2,"01:08:08",1
"19/05/12","01:20",0.0,15.6,46.1,1008.6,331.4,3.2,5.4,339.7,0.00,4.1,17.2,"01:19:20",1
"19/05/12","01:30",0.0,15.4,46.6,1008.8,331.3,3.2,4.5,334.6,0.00,4.1,17.0,"01:22:32",1
"19/05/12","01:40",0.0,15.1,47.7,1008.3,337.5,2.8,5.6,352.4,0.00,4.1,17.1,"01:34:32",1
"19/05/12","01:50",0.0,14.6,50.1,1008.3,337.2,2.2,3.5,327.2,0.00,4.4,17.0,"01:47:28",1
"19/05/12","02:00",0.0,15.1,48.7,1008.6,328.4,3.0,4.9,328.4,0.00,4.4,17.0,"01:55:04",1
"19/05/12","02:10",0.0,15.0,48.7,1008.3,332.0,2.5,4.8,329.5,0.00,4.3,16.7,"02:06:32",1
"19/05/12","02:20",0.0,14.8,48.9,1008.6,333.4,2.5,4.8,323.2,0.00,4.2,16.5,"02:16:08",1
"19/05/12","02:30",0.0,14.3,51.0,1008.1,327.5,2.0,3.3,332.1,0.00,4.3,16.6,"02:29:12",1
"19/05/12","02:40",0.0,14.4,51.5,1008.3,331.4,2.8,5.6,329.9,0.00,4.6,16.6,"02:39:28",1
"19/05/12","02:50",0.0,14.5,51.2,1008.8,326.7,3.0,5.1,326.6,0.00,4.6,16.7,"02:40:08",1
"19/05/12","03:00",0.0,14.2,52.1,1008.6,331.8,2.6,4.5,338.0,0.00,4.6,16.4,"02:54:56",1
"19/05/12","03:10",0.0,14.1,52.7,1008.6,332.3,2.6,5.8,340.2,0.00,4.6,16.5,"03:08:48",1
"19/05/12","03:20",0.0,14.2,52.0,1008.8,330.7,3.0,4.8,332.6,0.00,4.5,16.5,"03:11:36",1
"19/05/12","03:30",0.0,14.1,52.8,1008.8,327.7,2.5,5.1,329.6,0.00,4.7,16.3,"03:26:40",1
"19/05/12","03:40",0.0,14.1,52.9,1008.6,329.2,3.0,4.7,313.9,0.00,4.7,16.2,"03:39:52",1
"19/05/12","03:50",0.0,14.2,52.7,1008.6,323.9,3.1,4.9,327.0,0.00,4.7,16.1,"03:49:36",1
"19/05/12","04:00",0.0,14.1,52.8,1008.8,326.7,3.2,6.6,336.1,0.00,4.7,16.0,"03:52:32",1
"19/05/12","04:10",0.0,13.6,53.9,1008.8,330.7,2.7,4.2,340.0,0.00,4.5,16.2,"04:09:04",1
"19/05/12","04:20",0.0,13.4,55.4,1008.8,327.5,2.7,3.9,333.5,0.00,4.7,16.2,"04:10:08",1
"19/05/12","04:30",0.0,13.2,55.9,1009.0,328.2,2.6,3.9,328.1,0.00,4.6,16.1,"04:24:58",1
"19/05/12","04:40",0.0,12.8,57.9,1008.8,331.5,2.6,3.9,321.8,0.00,4.8,15.8,"04:39:56",1
"19/05/12","04:50",0.0,13.0,57.2,1008.8,324.5,2.7,4.4,333.2,0.00,4.8,16.0,"04:43:46",1
"19/05/12","05:00",0.0,12.5,58.5,1009.0,328.2,2.3,3.1,319.2,0.00,4.6,15.9,"04:53:08",1
"19/05/12","05:10",0.0,12.3,60.5,1009.0,327.9,2.5,3.5,328.5,0.00,4.9,15.9,"05:08:30",1
"19/05/12","05:20",0.0,12.2,61.2,1009.3,326.4,2.5,3.2,329.2,0.00,5.0,15.8,"05:17:10",1
"19/05/12","05:30",0.0,12.5,61.0,1009.3,321.5,3.0,3.9,310.3,0.00,5.2,15.7,"05:22:00",1
"19/05/12","05:40",0.0,12.8,59.8,1009.0,322.2,2.7,3.7,309.7,0.00,5.2,15.7,"05:32:56",1
"19/05/12","05:50",0.0,12.6,60.3,1009.3,332.1,3.1,4.5,321.6,0.00,5.2,15.8,"05:49:58",1
"19/05/12","06:00",0.0,12.7,60.8,1009.0,327.6,2.8,4.2,323.7,0.00,5.4,15.6,"05:53:12",1
"19/05/12","06:10",0.0,12.7,61.5,1009.5,329.5,2.5,3.6,329.8,0.00,5.5,15.5,"06:00:56",1
"19/05/12","06:20",0.0,12.9,62.0,1009.7,331.9,2.3,4.0,317.9,0.01,5.8,15.5,"06:13:52",1
"19/05/12","06:30",0.0,13.7,59.7,1009.7,332.5,3.1,4.8,342.4,0.02,6.1,15.6,"06:26:08",1
"19/05/12","06:40",0.0,14.3,57.7,1010.0,330.6,2.6,4.9,320.3,0.03,6.1,15.6,"06:39:04",1
"19/05/12","06:50",0.0,14.7,57.4,1009.7,333.1,2.2,3.3,326.4,0.05,6.4,15.6,"06:41:52",1
"19/05/12","07:00",0.0,15.3,56.4,1010.0,333.5,2.1,4.1,326.0,0.07,6.7,15.6,"06:58:16",1
"19/05/12","07:10",0.0,15.7,55.5,1010.0,328.8,2.6,4.5,331.5,0.09,6.9,15.8,"07:08:24",1
"19/05/12","07:20",0.0,16.1,55.0,1010.0,341.9,2.1,4.4,346.4,0.12,7.1,15.7,"07:13:36",1
"19/05/12","07:30",0.0,16.5,52.7,1010.2,340.7,2.6,4.4,344.8,0.14,6.9,16.0,"07:20:16",1
"19/05/12","07:40",0.0,17.1,52.7,1010.2,342.9,2.8,4.9,335.0,0.18,7.4,16.2,"07:34:48",1
"19/05/12","07:50",0.0,17.7,49.8,1010.0,336.6,2.8,5.0,333.3,0.20,7.1,16.0,"07:46:32",1
"19/05/12","08:00",0.0,18.0,48.5,1010.2,334.8,2.8,5.5,335.2,0.21,7.0,16.2,"07:59:04",1
"19/05/12","08:10",0.0,18.2,48.9,1010.2,327.7,2.7,4.4,340.3,0.15,7.3,16.4,"08:01:20",1
"19/05/12","08:20",0.0,18.9,47.9,1010.0,330.5,2.5,5.2,342.6,0.23,7.7,16.4,"08:17:04",1
"19/05/12","08:30",0.0,19.3,46.8,1010.0,309.6,1.5,3.6,319.5,0.26,7.7,16.7,"08:20:24",1
"19/05/12","08:40",0.0,19.1,49.1,1009.7,288.3,0.8,1.7,309.2,0.19,8.2,16.8,"08:36:08",1
"19/05/12","08:50",0.0,18.6,49.2,1009.7,336.4,2.2,4.4,338.7,0.20,7.8,16.9,"08:47:52",1
"19/05/12","09:00",0.0,18.6,49.7,1009.5,332.4,2.7,5.7,338.5,0.21,7.9,17.0,"08:55:52",1
"19/05/12","09:10",0.0,19.2,49.8,1009.7,329.7,2.3,3.5,344.0,0.22,8.5,17.0,"09:05:26",1
"19/05/12","09:20",0.0,19.7,48.5,1010.0,329.1,2.3,4.3,347.2,0.27,8.6,17.2,"09:16:40",1
"19/05/12","09:30",0.0,20.0,46.8,1009.7,334.2,2.3,4.2,340.5,0.25,8.3,17.5,"09:24:48",1
"19/05/12","09:40",0.0,20.2,48.7,1009.5,329.7,1.3,2.7,348.7,0.24,9.1,17.6,"09:36:00",1
"19/05/12","09:50",0.0,20.7,45.6,1009.5,294.6,0.5,1.6,232.0,0.22,8.6,17.7,"09:41:28",1
"19/05/12","10:00",0.0,21.5,45.5,1009.3,352.6,1.1,2.7,348.9,0.31,9.3,17.9,"09:57:04",1
"19/05/12","10:10",0.0,21.7,44.7,1008.8,336.7,0.7,2.5,343.8,0.37,9.2,18.1,"10:02:48",1
"19/05/12","10:20",0.0,21.8,45.0,1008.6,293.6,0.6,1.1,313.8,0.27,9.4,18.2,"10:14:08",1
"19/05/12","10:30",0.0,21.8,43.6,1008.6,209.7,0.7,2.5,212.5,0.22,8.9,18.4,"10:25:28",1
"19/05/12","10:40",0.0,22.1,40.7,1008.8,232.0,0.6,1.4,234.6,0.27,8.2,18.6,"10:31:44",1
"19/05/12","10:50",0.0,22.6,43.1,1008.6,199.6,1.3,2.1,214.8,0.35,9.5,18.8,"10:40:16",1
"19/05/12","11:00",0.0,22.6,42.7,1008.3,204.0,0.8,1.8,257.3,0.31,9.3,18.7,"10:57:44",1
"19/05/12","11:10",0.0,22.8,41.3,1008.3,317.2,1.1,3.1,329.2,0.38,9.0,19.0,"11:08:40",1
"19/05/12","11:20",0.0,23.4,42.2,1007.6,146.4,0.7,1.9,329.6,0.38,9.9,19.3,"11:10:16",1
"19/05/12","11:30",0.0,24.1,41.3,1008.3,159.3,1.0,2.0,231.3,0.45,10.2,19.5,"11:29:04",1
"19/05/12","11:40",0.0,24.5,34.5,1008.1,84.6,0.7,2.4,353.1,0.46,7.9,19.6,"11:32:08",1
"19/05/12","11:50",0.0,25.1,37.8,1008.3,307.0,0.7,1.9,349.4,0.49,9.8,20.1,"11:43:12",1
"19/05/12","12:00",0.0,25.3,37.5,1008.6,205.0,1.5,4.1,227.5,0.59,9.8,20.3,"11:57:44",1
"19/05/12","12:10",0.0,25.7,38.4,1008.8,199.4,1.6,3.3,220.5,0.59,10.5,20.6,"12:03:12",1
"19/05/12","12:20",0.0,25.9,35.3,1008.3,194.6,1.3,2.9,176.0,0.60,9.4,20.7,"12:13:28",1
"19/05/12","12:30",0.0,26.5,37.3,1008.3,157.5,1.5,3.2,185.4,0.60,10.8,21.3,"12:20:08",1
"19/05/12","12:40",0.0,26.8,36.3,1008.3,155.4,1.5,3.1,219.3,0.61,10.7,21.7,"12:38:40",1
"19/05/12","12:50",0.0,26.9,36.8,1008.3,187.6,1.7,3.5,197.4,0.51,11.0,21.8,"12:40:56",1
"19/05/12","13:00",0.0,27.4,38.8,1008.3,179.3,1.1,2.8,170.4,0.48,12.2,22.1,"12:53:52",1
"19/05/12","13:10",0.0,26.9,37.6,1008.1,331.1,1.6,3.4,343.6,0.45,11.3,22.4,"13:02:32",1
"19/05/12","13:20",0.0,27.3,37.3,1007.8,214.9,1.2,2.6,231.9,0.59,11.5,22.4,"13:18:24",1
"19/05/12","13:30",0.0,28.0,37.5,1008.1,226.7,1.5,3.9,215.5,0.58,12.2,22.3,"13:20:40",1
"19/05/12","13:40",0.0,28.3,35.4,1008.3,208.8,1.3,2.9,152.4,0.62,11.6,22.5,"13:39:52",1
"19/05/12","13:50",0.0,27.6,33.2,1007.8,243.5,1.3,2.9,158.9,0.46,10.0,22.6,"13:40:08",1
"19/05/12","14:00",0.0,28.4,34.0,1007.6,184.4,1.2,3.1,119.8,0.48,11.1,22.6,"13:58:00",1
"19/05/12","14:10",0.0,28.8,34.5,1007.6,199.0,1.7,3.5,216.8,0.54,11.6,22.8,"14:01:44",1
"19/05/12","14:20",0.0,28.6,31.9,1007.4,176.1,1.8,4.3,216.0,0.55,10.3,22.9,"14:14:40",1
"19/05/12","14:30",0.0,28.5,24.4,1007.6,198.4,2.2,3.6,218.3,0.54,6.3,23.1,"14:27:44",1
"19/05/12","14:40",0.0,29.0,27.7,1007.6,159.2,1.3,2.4,119.2,0.51,8.5,23.1,"14:33:36",1
"19/05/12","14:50",0.0,29.0,29.9,1007.4,185.4,1.7,4.3,223.5,0.50,9.7,23.1,"14:43:12",1
"19/05/12","15:00",0.0,28.9,29.8,1006.9,131.2,2.0,4.0,146.1,0.46,9.5,23.3,"14:51:12",1
"19/05/12","15:10",0.0,28.8,27.5,1006.9,116.9,1.6,3.1,120.5,0.32,8.3,23.3,"15:01:28",1
"19/05/12","15:20",0.0,28.9,24.7,1006.9,130.9,1.1,2.9,122.2,0.42,6.8,23.5,"15:18:08",1
"19/05/12","15:30",0.0,29.3,25.0,1006.7,171.7,1.0,2.1,115.4,0.45,7.3,23.6,"15:27:52",1
"19/05/12","15:40",0.0,29.3,25.4,1006.7,99.3,1.2,2.4,110.0,0.39,7.5,23.8,"15:30:16",1
"19/05/12","15:50",0.0,29.4,26.0,1006.4,186.8,1.2,3.4,98.5,0.37,8.0,23.8,"15:42:16",1
"19/05/12","16:00",0.0,29.5,26.8,1006.7,212.5,1.0,2.4,333.6,0.38,8.5,23.9,"15:51:04",1
"19/05/12","16:10",0.0,29.8,24.8,1006.4,283.5,1.1,3.6,351.0,0.33,7.6,23.8,"16:09:20",1
"19/05/12","16:20",0.0,28.7,25.4,1006.0,313.6,2.5,7.2,343.5,0.26,7.0,23.7,"16:10:02",1
"19/05/12","16:30",0.0,28.3,27.4,1005.5,345.7,3.9,6.6,6.4,0.29,7.8,23.7,"16:20:16",1
"19/05/12","16:40",0.0,27.8,27.3,1005.2,344.3,4.1,6.8,318.3,0.26,7.3,23.3,"16:33:20",1
"19/05/12","16:50",0.0,27.3,27.4,1004.8,343.8,4.2,7.5,347.8,0.23,6.9,23.2,"16:47:28",1
"19/05/12","17:00",0.0,27.2,28.5,1004.8,337.1,4.0,7.0,327.0,0.19,7.4,23.1,"16:53:12",1
"19/05/12","17:10",0.0,27.4,28.1,1004.5,336.6,2.6,5.1,336.1,0.18,7.4,23.1,"17:04:00",1
"19/05/12","17:20",0.0,26.8,27.9,1005.2,341.2,3.2,7.4,345.3,0.15,6.8,23.1,"17:12:40",1
"19/05/12","17:30",0.0,26.6,30.2,1005.0,338.6,3.0,5.6,341.4,0.13,7.8,22.9,"17:29:12",1
"19/05/12","17:40",0.0,26.3,32.8,1005.5,341.6,3.2,6.0,348.6,0.10,8.7,22.6,"17:30:40",1
"19/05/12","17:50",0.0,25.9,32.2,1005.5,340.0,3.2,6.2,338.5,0.03,8.1,22.7,"17:41:28",1
"19/05/12","18:00",0.0,25.4,32.7,1005.7,340.5,3.7,7.0,338.8,0.02,7.9,22.2,"17:56:08",1
"19/05/12","18:10",0.0,25.1,32.4,1005.7,335.7,3.6,7.7,332.6,0.02,7.5,22.4,"18:06:08",1
"19/05/12","18:20",0.0,24.7,33.1,1006.0,335.4,3.9,7.8,343.1,0.01,7.4,22.2,"18:11:36",1
"19/05/12","18:30",0.0,24.4,32.8,1006.2,332.1,3.9,8.9,328.1,0.01,7.1,22.0,"18:20:08",1
"19/05/12","18:40",0.0,23.9,33.3,1006.2,333.7,3.1,5.5,349.0,0.00,6.8,21.9,"18:34:24",1
"19/05/12","18:50",0.0,23.5,33.2,1007.1,326.6,2.6,6.6,330.5,0.00,6.4,21.7,"18:40:48",1
"19/05/12","19:00",0.0,23.4,32.0,1007.1,319.0,1.6,3.7,347.7,0.00,5.8,21.4,"18:52:32",1
"19/05/12","19:10",0.0,23.1,31.7,1007.8,308.3,0.8,2.0,310.4,0.00,5.4,21.3,"19:06:48",1
"19/05/12","19:20",0.0,22.6,32.6,1007.6,350.2,1.5,2.7,344.7,0.00,5.4,21.3,"19:19:12",1
"19/05/12","19:30",0.0,22.3,31.4,1008.1,352.4,2.1,3.6,349.8,0.00,4.6,21.1,"19:22:24",1
"19/05/12","19:40",0.0,20.8,37.8,1008.1,341.9,2.2,4.8,342.1,0.00,5.9,20.9,"19:30:08",1
"19/05/12","19:50",0.0,20.7,36.5,1008.6,335.7,2.1,3.9,333.5,0.00,5.3,20.8,"19:46:08",1
"19/05/12","20:00",0.0,20.7,36.3,1008.3,331.7,1.8,2.7,341.0,0.00,5.3,20.7,"19:54:40",1
"19/05/12","20:10",0.0,20.8,36.2,1008.6,331.6,2.3,4.0,332.3,0.00,5.3,20.5,"20:04:40",1
"19/05/12","20:20",0.0,20.4,37.7,1008.8,295.5,1.3,2.8,339.8,0.00,5.5,20.2,"20:12:24",1
"19/05/12","20:30",0.0,20.0,38.6,1009.0,284.5,1.1,2.5,349.8,0.00,5.5,20.4,"20:20:40",1
"19/05/12","20:40",0.0,20.0,39.0,1009.3,288.8,1.3,3.4,334.4,0.00,5.7,20.1,"20:32:16",1
"19/05/12","20:50",0.0,19.7,40.0,1009.5,283.1,1.1,1.8,326.2,0.00,5.8,19.7,"20:40:32",1
"19/05/12","21:00",0.0,19.2,41.0,1009.7,285.9,1.1,1.4,278.1,0.00,5.7,19.6,"20:52:40",1
"19/05/12","21:10",0.0,19.0,42.1,1010.2,308.2,1.6,2.6,330.1,0.00,5.9,19.5,"21:00:02",1
"19/05/12","21:20",0.0,19.0,41.5,1010.4,330.7,3.1,4.3,334.8,0.00,5.7,19.6,"21:18:40",1
"19/05/12","21:30",0.0,18.8,41.8,1010.4,309.8,2.1,3.6,335.1,0.00,5.6,19.5,"21:21:36",1
"19/05/12","21:40",0.0,18.7,42.8,1010.7,318.6,2.1,4.1,326.4,0.00,5.9,19.3,"21:38:40",1
"19/05/12","21:50",0.0,18.7,44.3,1010.7,325.5,2.7,4.0,344.5,0.00,6.3,19.4,"21:42:56",1
"19/05/12","22:00",0.0,18.3,45.9,1010.7,331.4,2.2,3.7,339.6,0.00,6.5,19.1,"21:52:16",1
"19/05/12","22:10",0.0,18.1,47.0,1010.7,332.3,2.2,3.7,314.2,0.00,6.7,19.1,"22:02:32",1
"19/05/12","22:20",0.0,17.6,49.1,1010.7,335.4,1.7,3.4,328.7,0.00,6.8,18.9,"22:17:12",1
"19/05/12","22:30",0.0,17.4,50.7,1010.7,336.8,1.5,3.1,338.4,0.00,7.1,18.9,"22:29:20",1
"19/05/12","22:40",0.0,17.1,52.3,1010.9,335.0,2.0,3.1,338.7,0.00,7.3,18.9,"22:37:36",1
"19/05/12","22:50",0.0,17.0,52.9,1010.9,337.1,2.0,4.1,335.0,0.00,7.4,18.7,"22:40:02",1
"19/05/12","23:00",0.0,17.1,52.7,1011.2,337.8,2.0,3.4,331.5,0.00,7.4,18.6,"22:53:20",1
"19/05/12","23:10",0.0,17.0,53.5,1010.9,334.9,2.0,4.0,338.2,0.00,7.5,18.6,"23:05:04",1
"19/05/12","23:20",0.0,16.5,55.3,1010.9,333.5,2.0,3.2,339.8,0.00,7.6,18.5,"23:17:36",1
"19/05/12","23:30",0.0,16.3,56.1,1011.2,333.6,2.1,3.5,335.2,0.00,7.6,18.3,"23:22:24",1
"19/05/12","23:40",0.0,16.0,56.7,1010.9,331.3,2.3,3.6,336.2,0.00,7.5,18.2,"23:36:24",1
"19/05/12","23:50",0.0,16.0,56.7,1011.4,338.8,2.6,3.9,338.0,0.00,7.5,18.1,"23:43:36",1
"19/05/12","24:00",0.0,15.8,57.7,1011.4,335.3,2.6,4.1,342.4,0.00,7.5,18.0,"23:54:24",1
